This demonstration page uses our WeatherBlox Daily Observations layout. Learn more.

Left ArrowRight Arrow

53.62937, 11.41316

Hourly Observations for June 19, 2017

Temp ( °F °C ) Dew Point ( °F °C ) Humidity (%) Winds ( mph kmh ) Pressure ( in mb ) Visibility ( mi km ) Precip ( " mm )
6:20 am 06:20 Mostly Sunny 59 15 59 15 100 100 E 2 4 30.21 1023 7 11 N/A
6:50 am 06:50 Mostly Sunny 63 17 63 17 100 100 VRB 1 2 30.21 1023 7 11 N/A
7:20 am 07:20 Mostly Sunny 68 20 64 18 88 88 VRB 1 2 30.21 1023 7 11 N/A
7:50 am 07:50 Mostly Sunny 70 21 63 17 78 78 SW 3 6 30.21 1023 7 11 N/A
8:20 am 08:20 Mostly Sunny 72 22 63 17 73 73 WSW 6 9 30.21 1023 7 11 N/A
8:50 am 08:50 Mostly Sunny 73 23 64 18 74 74 SW 6 9 30.21 1023 7 11 N/A
9:20 am 09:20 Mostly Sunny 73 23 63 17 69 69 SSW 6 9 30.21 1023 7 11 N/A
9:50 am 09:50 Mostly Sunny 75 24 63 17 65 65 SW 5 7 30.21 1023 7 11 N/A
10:20 am 10:20 Mostly Sunny 77 25 64 18 65 65 SW 3 6 30.21 1023 30 48 N/A
10:50 am 10:50 Mostly Sunny 79 26 64 18 61 61 SSW 5 7 30.18 1022 30 48 N/A
11:20 am 11:20 Partly Cloudy 79 26 61 16 54 54 VRB 5 7 30.18 1022 30 48 N/A
11:50 am 11:50 Partly Cloudy 77 25 63 17 61 61 WNW 5 7 30.18 1022 30 48 N/A
12:20 pm 12:20 Partly Cloudy 79 26 63 17 58 58 VRB 2 4 30.18 1022 30 48 N/A
12:50 pm 12:50 Partly Cloudy 79 26 63 17 58 58 VRB 2 4 30.18 1022 30 48 N/A
1:20 pm 13:20 Partly Cloudy 79 26 63 17 58 58 S 5 7 30.15 1021 30 48 N/A
1:50 pm 13:50 Partly Cloudy 79 26 61 16 54 54 S 5 7 30.15 1021 30 48 N/A
2:20 pm 14:20 Mostly Sunny 81 27 63 17 54 54 SSE 3 6 30.15 1021 7 11 N/A
2:50 pm 14:50 Partly Cloudy 82 28 63 17 51 51 VRB 5 7 30.12 1020 30 48 N/A
3:20 pm 15:20 Partly Cloudy 82 28 61 16 48 48 WNW 5 7 30.12 1020 30 48 N/A
3:50 pm 15:50 Mostly Sunny 82 28 63 17 51 51 VRB 7 11 30.12 1020 7 11 N/A
4:20 pm 16:20 Mostly Sunny 82 28 63 17 51 51 SW 8 13 30.09 1019 7 11 N/A
4:50 pm 16:50 Mostly Sunny 82 28 61 16 48 48 WSW 9 15 30.09 1019 7 11 N/A
5:20 pm 17:20 Mostly Sunny 82 28 61 16 48 48 WSW 7 11 30.09 1019 7 11 N/A
5:50 pm 17:50 Mostly Sunny 82 28 63 17 51 51 SSW 8 13 30.06 1018 7 11 N/A

Powered by AerisWeather